| time (UTC) | temp F | wind direction | speed MPH | gust MPH | rain 1hr in | rain 24hr in | rain mn in | humidity % | barometer mb |
| 20260510192446 | 63 | 154 | 0.0 | 0.0 | 0.00 | 0.00 | 0.00 | 37 | 1019.9 |
| 20260510191942 | 63 | 154 | 0.0 | 0.0 | 0.00 | 0.00 | 0.00 | 37 | 1019.6 |
| 20260510191438 | 63 | 102 | 2.0 | 3.0 | 0.00 | 0.00 | 0.00 | 40 | 1019.6 |
| 20260510190935 | 63 | 102 | 2.0 | 3.0 | 0.00 | 0.00 | 0.00 | 40 | 1019.8 |
| 20260510190433 | 64 | 2 | 1.0 | 1.0 | 0.00 | 0.00 | 0.00 | 39 | 1019.6 |
| 20260510185929 | 63 | 134 | 0.0 | 1.0 | 0.00 | 0.00 | 0.00 | 39 | 1019.7 |
| 20260510185427 | 62 | 147 | 0.0 | 1.0 | 0.00 | 0.00 | 0.00 | 40 | 1019.8 |
| 20260510184924 | 62 | 273 | 1.0 | 2.0 | 0.00 | 0.00 | 0.00 | 39 | 1019.7 |
| 20260510184421 | 62 | 1 | 2.0 | 3.0 | 0.00 | 0.00 | 0.00 | 38 | 1020.0 |
| 20260510183920 | 63 | 272 | 0.0 | 2.0 | 0.00 | 0.00 | 0.00 | 37 | 1019.7 |
| 20260510183417 | 63 | 298 | 1.0 | 2.0 | 0.00 | 0.00 | 0.00 | 42 | 1019.8 |
| 20260510182912 | 63 | 350 | 2.0 | 3.0 | 0.00 | 0.00 | 0.00 | 42 | 1019.8 |
| 20260510182409 | 61 | 155 | 1.0 | 2.0 | 0.00 | 0.00 | 0.00 | 39 | 1019.7 |
| 20260510181904 | 62 | 274 | 1.0 | 4.0 | 0.00 | 0.00 | 0.00 | 41 | 1019.5 |
| 20260510181402 | 61 | 325 | 1.0 | 3.0 | 0.00 | 0.00 | 0.00 | 46 | 1019.7 |
| 20260510180858 | 63 | 169 | 1.0 | 1.0 | 0.00 | 0.00 | 0.00 | 42 | 1019.3 |
| 20260510180355 | 61 | 344 | 4.0 | 6.0 | 0.00 | 0.00 | 0.00 | 46 | 1019.3 |
| 20260510175853 | 62 | 177 | 1.0 | 2.0 | 0.00 | 0.00 | 0.00 | 43 | 1019.3 |
| 20260510175348 | 60 | 151 | 1.0 | 3.0 | 0.00 | 0.00 | 0.00 | 45 | 1019.2 |
| 20260510174844 | 62 | 321 | 2.0 | 3.0 | 0.00 | 0.00 | 0.00 | 44 | 1019.3 |
| 20260510174342 | 61 | 315 | 1.0 | 4.0 | 0.00 | 0.00 | 0.00 | 45 | 1019.6 |
| 20260510173838 | 61 | 317 | 0.0 | 2.0 | 0.00 | 0.00 | 0.00 | 46 | 1019.4 |
| 20260510173334 | 61 | 270 | 1.0 | 2.0 | 0.00 | 0.00 | 0.00 | 45 | 1019.3 |
| 20260510172830 | 61 | 122 | 1.0 | 6.0 | 0.00 | 0.00 | 0.00 | 47 | 1019.3 |
| 20260510172327 | 60 | 329 | 1.0 | 3.0 | 0.00 | 0.00 | 0.00 | 48 | 1019.6 |
| 20260510171823 | 61 | 25 | 2.0 | 2.0 | 0.00 | 0.00 | 0.00 | 52 | 1019.6 |
| 20260510171321 | 60 | 156 | 1.0 | 2.0 | 0.00 | 0.00 | 0.00 | 47 | 1019.7 |
| 20260510170818 | 60 | 31 | 1.0 | 3.0 | 0.00 | 0.00 | 0.00 | 47 | 1019.7 |
| 20260510170314 | 59 | 297 | 1.0 | 2.0 | 0.00 | 0.00 | 0.00 | 51 | 1019.7 |
| 20260510165809 | 60 | 304 | 3.0 | 3.0 | 0.00 | 0.00 | 0.00 | 48 | 1019.7 |
| 20260510165307 | 60 | 158 | 0.0 | 2.0 | 0.00 | 0.00 | 0.00 | 44 | 1019.6 |
| 20260510164804 | 60 | 187 | 2.0 | 2.0 | 0.00 | 0.00 | 0.00 | 45 | 1019.8 |
| 20260510164301 | 60 | 334 | 1.0 | 3.0 | 0.00 | 0.00 | 0.00 | 48 | 1019.8 |
| 20260510163800 | 60 | 116 | 0.0 | 3.0 | 0.00 | 0.00 | 0.00 | 47 | 1019.6 |
| 20260510163256 | 58 | 63 | 1.0 | 2.0 | 0.00 | 0.00 | 0.00 | 51 | 1019.6 |
| 20260510162756 | 59 | 314 | 2.0 | 3.0 | 0.00 | 0.00 | 0.00 | 48 | 1019.6 |
| 20260510162254 | 59 | 169 | 2.0 | 6.0 | 0.00 | 0.00 | 0.00 | 49 | 1019.7 |
| 20260510161744 | 59 | 4 | 1.0 | 3.0 | 0.00 | 0.00 | 0.00 | 54 | 1019.4 |
| 20260510161240 | 57 | 342 | 2.0 | 6.0 | 0.00 | 0.00 | 0.00 | 52 | 1019.5 |
| 20260510160738 | 58 | 346 | 6.0 | 8.0 | 0.00 | 0.00 | 0.00 | 51 | 1019.5 |
| 20260510160233 | 57 | 314 | 1.0 | 3.0 | 0.00 | 0.00 | 0.00 | 56 | 1019.4 |
| 20260510155729 | 58 | 343 | 4.0 | 6.0 | 0.00 | 0.00 | 0.00 | 51 | 1019.5 |
| 20260510155224 | 59 | 310 | 2.0 | 3.0 | 0.00 | 0.00 | 0.00 | 50 | 1019.5 |
| 20260510154721 | 57 | 133 | 2.0 | 6.0 | 0.00 | 0.00 | 0.00 | 52 | 1019.3 |
| 20260510154217 | 57 | 149 | 0.0 | 3.0 | 0.00 | 0.00 | 0.00 | 54 | 1019.5 |
| 20260510153712 | 58 | 112 | 2.0 | 6.0 | 0.00 | 0.00 | 0.00 | 51 | 1019.4 |
| 20260510153208 | 58 | 304 | 2.0 | 3.0 | 0.00 | 0.00 | 0.00 | 52 | 1019.1 |
| 20260510152705 | 57 | 197 | 1.0 | 3.0 | 0.00 | 0.00 | 0.00 | 55 | 1019.2 |
| 20260510152201 | 57 | 340 | 1.0 | 2.0 | 0.00 | 0.00 | 0.00 | 54 | 1019.1 |
| 20260510151658 | 57 | 169 | 1.0 | 3.0 | 0.00 | 0.00 | 0.00 | 51 | 1018.9 |
| 20260510151156 | 56 | 94 | 1.0 | 6.0 | 0.00 | 0.00 | 0.00 | 56 | 1019.0 |
| 20260510150652 | 57 | 18 | 1.0 | 3.0 | 0.00 | 0.00 | 0.00 | 59 | 1018.9 |
| 20260510150147 | 58 | 126 | 1.0 | 4.0 | 0.00 | 0.00 | 0.00 | 56 | 1018.9 |
| 20260510145644 | 56 | 282 | 0.0 | 2.0 | 0.00 | 0.00 | 0.00 | 63 | 1018.7 |
| 20260510145140 | 56 | 273 | 2.0 | 2.0 | 0.00 | 0.00 | 0.00 | 62 | 1018.6 |
| 20260510144636 | 55 | 255 | 1.0 | 6.0 | 0.00 | 0.00 | 0.00 | 63 | 1018.6 |
| 20260510144133 | 55 | 344 | 2.0 | 3.0 | 0.00 | 0.00 | 0.00 | 61 | 1018.7 |
| 20260510143628 | 55 | 84 | 0.0 | 2.0 | 0.00 | 0.00 | 0.00 | 65 | 1018.4 |
| 20260510143125 | 54 | 5 | 0.0 | 1.0 | 0.00 | 0.00 | 0.00 | 63 | 1018.2 |
| 20260510142621 | 53 | 41 | 0.0 | 7.0 | 0.00 | 0.00 | 0.00 | 63 | 1018.3 |
| 20260510142118 | 54 | 342 | 1.0 | 4.0 | 0.00 | 0.00 | 0.00 | 64 | 1018.1 |
| 20260510141615 | 54 | 342 | 0.0 | 3.0 | 0.00 | 0.00 | 0.00 | 66 | 1018.0 |
| 20260510141113 | 55 | 308 | 2.0 | 4.0 | 0.00 | 0.00 | 0.00 | 64 | 1018.1 |
| 20260510140609 | 54 | 335 | 1.0 | 2.0 | 0.00 | 0.00 | 0.00 | 67 | 1018.1 |
| 20260510140109 | 54 | 96 | 0.0 | 1.0 | 0.00 | 0.00 | 0.00 | 69 | 1018.0 |
| 20260510135604 | 54 | 170 | 0.0 | 4.0 | 0.00 | 0.00 | 0.00 | 68 | 1018.0 |
| 20260510135101 | 54 | 349 | 1.0 | 2.0 | 0.00 | 0.00 | 0.00 | 71 | 1018.1 |
| 20260510134558 | 52 | 143 | 0.0 | 7.0 | 0.00 | 0.00 | 0.00 | 71 | 1018.0 |
| 20260510134055 | 52 | 289 | 1.0 | 1.0 | 0.00 | 0.00 | 0.00 | 72 | 1018.0 |
| 20260510133551 | 51 | 107 | 2.0 | 4.0 | 0.00 | 0.00 | 0.00 | 75 | 1018.0 |
| 20260510133047 | 51 | 85 | 0.0 | 2.0 | 0.00 | 0.00 | 0.00 | 77 | 1018.0 |
| 20260510132543 | 50 | 342 | 0.0 | 3.0 | 0.00 | 0.00 | 0.00 | 76 | 1018.0 |
| 20260510132040 | 50 | 96 | 2.0 | 3.0 | 0.00 | 0.00 | 0.00 | 78 | 1018.1 |
| 20260510131538 | 49 | 129 | 0.0 | 2.0 | 0.00 | 0.00 | 0.00 | 78 | 1017.7 |
| 20260510131035 | 49 | 356 | 1.0 | 7.0 | 0.00 | 0.00 | 0.00 | 78 | 1017.8 |
| 20260510130531 | 49 | 7 | 0.0 | 0.0 | 0.00 | 0.00 | 0.00 | 80 | 1017.4 |
| 20260510130029 | 49 | 342 | 0.0 | 1.0 | 0.00 | 0.00 | 0.00 | 81 | 1017.4 |
| 20260510125525 | 49 | 93 | 0.0 | 0.0 | 0.00 | 0.00 | 0.00 | 81 | 1017.7 |
| 20260510125022 | 49 | 92 | 0.0 | 1.0 | 0.00 | 0.00 | 0.00 | 81 | 1017.4 |
| 20260510124518 | 49 | 284 | 2.0 | 3.0 | 0.00 | 0.00 | 0.00 | 82 | 1017.7 |
| 20260510124015 | 48 | 40 | 0.0 | 1.0 | 0.00 | 0.00 | 0.00 | 82 | 1017.3 |
| 20260510123510 | 48 | 341 | 0.0 | 1.0 | 0.00 | 0.00 | 0.00 | 82 | 1017.2 |
| 20260510123007 | 48 | 13 | 1.0 | 1.0 | 0.00 | 0.00 | 0.00 | 82 | 1016.9 |
| 20260510122502 | 48 | 264 | 0.0 | 2.0 | 0.00 | 0.00 | 0.00 | 82 | 1016.7 |
| 20260510121959 | 48 | 86 | 2.0 | 4.0 | 0.00 | 0.00 | 0.00 | 81 | 1016.7 |
| 20260510121456 | 48 | 143 | 0.0 | 1.0 | 0.00 | 0.00 | 0.00 | 81 | 1016.7 |
| 20260510120953 | 48 | 125 | 0.0 | 0.0 | 0.00 | 0.00 | 0.00 | 81 | 1016.9 |
| 20260510120450 | 48 | 125 | 0.0 | 1.0 | 0.00 | 0.00 | 0.00 | 80 | 1016.7 |
| 20260510115946 | 48 | 298 | 0.0 | 1.0 | 0.00 | 0.00 | 0.00 | 80 | 1016.7 |
| 20260510115444 | 48 | 338 | 0.0 | 1.0 | 0.00 | 0.00 | 0.00 | 78 | 1016.3 |
| 20260510114939 | 48 | 349 | 0.0 | 2.0 | 0.00 | 0.00 | 0.00 | 78 | 1016.1 |
| 20260510114436 | 48 | 266 | 0.0 | 0.0 | 0.00 | 0.00 | 0.00 | 79 | 1015.9 |
| 20260510113932 | 48 | 250 | 0.0 | 0.0 | 0.00 | 0.00 | 0.00 | 78 | 1016.2 |
| 20260510113427 | 48 | 80 | 0.0 | 0.0 | 0.00 | 0.00 | 0.00 | 78 | 1015.9 |
| 20260510112925 | 48 | 11 | 0.0 | 1.0 | 0.00 | 0.00 | 0.00 | 78 | 1016.0 |
| 20260510112422 | 48 | 9 | 1.0 | 2.0 | 0.00 | 0.00 | 0.00 | 77 | 1015.9 |
| 20260510111918 | 48 | 262 | 0.0 | 0.0 | 0.00 | 0.00 | 0.00 | 77 | 1015.6 |
| 20260510111414 | 48 | 346 | 0.0 | 1.0 | 0.00 | 0.00 | 0.00 | 78 | 1015.4 |
| 20260510110910 | 48 | 321 | 0.0 | 1.0 | 0.00 | 0.00 | 0.00 | 78 | 1015.5 |
| 20260510110407 | 48 | 277 | 0.0 | 0.0 | 0.00 | 0.00 | 0.00 | 79 | 1015.3 |
| 20260510105902 | 48 | 7 | 0.0 | 1.0 | 0.00 | 0.00 | 0.00 | 78 | 1015.3 |
| 20260510105357 | 48 | 292 | 0.0 | 0.0 | 0.00 | 0.00 | 0.00 | 79 | 1015.2 |
| 20260510104853 | 48 | 279 | 0.0 | 0.0 | 0.00 | 0.00 | 0.00 | 79 | 1015.2 |
| 20260510104350 | 47 | 337 | 1.0 | 1.0 | 0.00 | 0.00 | 0.00 | 79 | 1014.8 |
| 20260510103846 | 47 | 246 | 0.0 | 0.0 | 0.00 | 0.00 | 0.00 | 80 | 1014.7 |
| 20260510103344 | 47 | 246 | 0.0 | 0.0 | 0.00 | 0.00 | 0.00 | 81 | 1014.8 |
| 20260510102839 | 47 | 278 | 0.0 | 0.0 | 0.00 | 0.00 | 0.00 | 80 | 1014.7 |
| 20260510102335 | 47 | 281 | 0.0 | 0.0 | 0.00 | 0.00 | 0.00 | 81 | 1014.8 |
| 20260510101832 | 47 | 279 | 0.0 | 0.0 | 0.00 | 0.00 | 0.00 | 82 | 1014.4 |
| 20260510101330 | 47 | 280 | 0.0 | 0.0 | 0.00 | 0.00 | 0.00 | 82 | 1014.3 |
| 20260510100825 | 46 | 282 | 0.0 | 0.0 | 0.00 | 0.00 | 0.00 | 82 | 1014.1 |
| 20260510100324 | 46 | 312 | 0.0 | 0.0 | 0.00 | 0.00 | 0.00 | 82 | 1014.1 |
| 20260510095820 | 46 | 266 | 0.0 | 0.0 | 0.00 | 0.00 | 0.00 | 82 | 1014.3 |
| 20260510095314 | 46 | 266 | 0.0 | 0.0 | 0.00 | 0.00 | 0.00 | 83 | 1014.0 |
| 20260510094809 | 46 | 266 | 0.0 | 0.0 | 0.00 | 0.00 | 0.00 | 83 | 1014.0 |
| 20260510094304 | 45 | 277 | 0.0 | 0.0 | 0.00 | 0.00 | 0.00 | 83 | 1014.0 |
| 20260510093801 | 46 | 281 | 0.0 | 0.0 | 0.00 | 0.00 | 0.00 | 83 | 1014.2 |
| 20260510093257 | 46 | 281 | 0.0 | 0.0 | 0.00 | 0.00 | 0.00 | 82 | 1014.0 |
| 20260510092753 | 46 | 305 | 0.0 | 0.0 | 0.00 | 0.00 | 0.00 | 82 | 1013.9 |
| 20260510092249 | 45 | 256 | 0.0 | 0.0 | 0.00 | 0.00 | 0.00 | 83 | 1014.0 |
| 20260510091745 | 46 | 256 | 0.0 | 0.0 | 0.00 | 0.00 | 0.00 | 83 | 1013.8 |
| 20260510091243 | 46 | 256 | 0.0 | 0.0 | 0.00 | 0.00 | 0.00 | 82 | 1013.8 |
| 20260510090739 | 46 | 255 | 0.0 | 0.0 | 0.00 | 0.00 | 0.00 | 82 | 1013.7 |
| 20260510090236 | 46 | 298 | 0.0 | 0.0 | 0.00 | 0.00 | 0.00 | 81 | 1013.8 |
| 20260510085731 | 47 | 301 | 0.0 | 0.0 | 0.00 | 0.00 | 0.00 | 80 | 1013.8 |
| 20260510085225 | 47 | 301 | 0.0 | 0.0 | 0.00 | 0.00 | 0.00 | 80 | 1013.8 |
| 20260510084722 | 47 | 279 | 0.0 | 0.0 | 0.00 | 0.00 | 0.00 | 80 | 1013.6 |
| 20260510084219 | 48 | 277 | 0.0 | 0.0 | 0.00 | 0.00 | 0.00 | 79 | 1013.4 |
| 20260510083715 | 48 | 341 | 0.0 | 0.0 | 0.00 | 0.00 | 0.00 | 78 | 1013.3 |
| 20260510083213 | 48 | 329 | 0.0 | 1.0 | 0.00 | 0.00 | 0.00 | 76 | 1013.5 |
| 20260510082709 | 48 | 133 | 0.0 | 0.0 | 0.00 | 0.00 | 0.00 | 78 | 1013.2 |
| 20260510082205 | 48 | 133 | 0.0 | 2.0 | 0.00 | 0.00 | 0.00 | 76 | 1013.0 |
| 20260510081705 | 49 | 338 | 0.0 | 1.0 | 0.00 | 0.00 | 0.00 | 76 | 1012.9 |
| 20260510081201 | 49 | 276 | 0.0 | 0.0 | 0.00 | 0.00 | 0.00 | 77 | 1012.9 |
| 20260510080700 | 49 | 298 | 0.0 | 0.0 | 0.00 | 0.00 | 0.00 | 78 | 1013.0 |
| 20260510080157 | 49 | 330 | 0.0 | 1.0 | 0.00 | 0.00 | 0.00 | 79 | 1012.9 |
| 20260510075654 | 49 | 169 | 0.0 | 0.0 | 0.00 | 0.00 | 0.00 | 80 | 1013.0 |
| 20260510075152 | 50 | 318 | 0.0 | 1.0 | 0.00 | 0.00 | 0.00 | 80 | 1012.8 |
| 20260510074649 | 50 | 128 | 0.0 | 1.0 | 0.00 | 0.00 | 0.00 | 82 | 1013.0 |
| 20260510074144 | 50 | 111 | 0.0 | 2.0 | 0.00 | 0.00 | 0.00 | 82 | 1012.9 |
| 20260510073641 | 50 | 352 | 2.0 | 3.0 | 0.00 | 0.00 | 0.00 | 84 | 1012.9 |
| 20260510073137 | 51 | 149 | 0.0 | 2.0 | 0.00 | 0.00 | 0.00 | 84 | 1012.8 |
| 20260510072633 | 51 | 291 | 0.0 | 1.0 | 0.00 | 0.00 | 0.00 | 85 | 1012.6 |
| 20260510072130 | 51 | 112 | 0.0 | 1.0 | 0.00 | 0.00 | 0.00 | 86 | 1012.8 |
| 20260510071626 | 52 | 256 | 1.0 | 7.0 | 0.00 | 0.00 | 0.00 | 86 | 1012.3 |
| 20260510071124 | 53 | 117 | 1.0 | 1.0 | 0.00 | 0.00 | 0.00 | 87 | 1012.4 |
| 20260510070621 | 53 | 15 | 2.0 | 3.0 | 0.00 | 0.00 | 0.00 | 86 | 1012.3 |
| 20260510070118 | 53 | 273 | 1.0 | 1.0 | 0.00 | 0.00 | 0.00 | 85 | 1012.1 |
| 20260510065614 | 54 | 292 | 2.0 | 4.0 | 0.00 | 0.00 | 0.00 | 84 | 1012.0 |
| 20260510065110 | 54 | 326 | 2.0 | 3.0 | 0.00 | 0.00 | 0.00 | 83 | 1012.0 |
| 20260510064607 | 55 | 256 | 1.0 | 1.0 | 0.00 | 0.00 | 0.00 | 83 | 1011.9 |
| 20260510064104 | 55 | 297 | 2.0 | 2.0 | 0.00 | 0.00 | 0.00 | 82 | 1011.8 |
| 20260510063601 | 56 | 255 | 2.0 | 3.0 | 0.00 | 0.00 | 0.00 | 83 | 1011.8 |
| 20260510063058 | 56 | 331 | 0.0 | 4.0 | 0.00 | 0.00 | 0.00 | 83 | 1011.8 |
| 20260510062553 | 56 | 336 | 2.0 | 3.0 | 0.00 | 0.00 | 0.00 | 84 | 1011.7 |
| 20260510062048 | 56 | 307 | 1.0 | 2.0 | 0.00 | 0.00 | 0.00 | 85 | 1011.8 |
| 20260510061545 | 56 | 346 | 0.0 | 1.0 | 0.00 | 0.00 | 0.00 | 86 | 1011.7 |
| 20260510061042 | 56 | 280 | 1.0 | 2.0 | 0.00 | 0.00 | 0.00 | 85 | 1011.7 |
| 20260510060538 | 56 | 318 | 1.0 | 4.0 | 0.00 | 0.00 | 0.00 | 85 | 1011.7 |
| 20260510060034 | 56 | 190 | 0.0 | 1.0 | 0.00 | 0.00 | 0.00 | 85 | 1011.6 |
| 20260510055531 | 56 | 277 | 0.0 | 1.0 | 0.00 | 0.00 | 0.00 | 85 | 1011.4 |
| 20260510055029 | 56 | 320 | 2.0 | 4.0 | 0.00 | 0.00 | 0.00 | 85 | 1011.5 |
| 20260510054525 | 56 | 309 | 2.0 | 2.0 | 0.00 | 0.00 | 0.00 | 85 | 1011.2 |
| 20260510054020 | 56 | 254 | 1.0 | 2.0 | 0.00 | 0.00 | 0.00 | 86 | 1011.3 |
| 20260510053515 | 56 | 333 | 0.0 | 0.0 | 0.00 | 0.00 | 0.00 | 87 | 1011.1 |
| 20260510053012 | 56 | 333 | 1.0 | 1.0 | 0.00 | 0.00 | 0.00 | 86 | 1011.0 |
| 20260510052508 | 56 | 113 | 0.0 | 2.0 | 0.00 | 0.00 | 0.00 | 87 | 1011.0 |
| 20260510051959 | 56 | 263 | 0.0 | 0.0 | 0.00 | 0.00 | 0.00 | 87 | 1010.9 |
| 20260510051454 | 56 | 278 | 0.0 | 1.0 | 0.00 | 0.00 | 0.00 | 87 | 1010.9 |
| 20260510050951 | 56 | 274 | 0.0 | 2.0 | 0.00 | 0.00 | 0.00 | 87 | 1010.9 |
| 20260510050449 | 56 | 345 | 1.0 | 2.0 | 0.00 | 0.00 | 0.00 | 88 | 1010.8 |
| 20260510045945 | 56 | 226 | 0.0 | 0.0 | 0.00 | 0.00 | 0.00 | 88 | 1010.8 |
| 20260510045443 | 56 | 312 | 0.0 | 1.0 | 0.00 | 0.00 | 0.00 | 88 | 1010.8 |
| 20260510044939 | 56 | 239 | 0.0 | 1.0 | 0.00 | 0.00 | 0.00 | 87 | 1010.9 |
| 20260510044436 | 56 | 118 | 0.0 | 2.0 | 0.00 | 0.00 | 0.00 | 89 | 1010.6 |
| 20260510043933 | 56 | 270 | 0.0 | 2.0 | 0.00 | 0.00 | 0.00 | 89 | 1010.8 |
| 20260510043428 | 56 | 271 | 1.0 | 1.0 | 0.00 | 0.00 | 0.00 | 89 | 1010.8 |
| 20260510042927 | 56 | 185 | 0.0 | 2.0 | 0.00 | 0.00 | 0.00 | 90 | 1010.8 |
| 20260510042423 | 56 | 150 | 1.0 | 1.0 | 0.00 | 0.00 | 0.00 | 90 | 1010.8 |
| 20260510041918 | 56 | 359 | 1.0 | 4.0 | 0.00 | 0.00 | 0.00 | 89 | 1010.9 |
| 20260510041416 | 56 | 176 | 2.0 | 3.0 | 0.00 | 0.00 | 0.00 | 88 | 1011.2 |
| 20260510040914 | 56 | 236 | 1.0 | 4.0 | 0.00 | 0.00 | 0.00 | 89 | 1010.9 |
| 20260510040410 | 54 | 250 | 4.0 | 7.0 | 0.00 | 0.00 | 0.00 | 97 | 1010.9 |
| 20260510035906 | 54 | 216 | 0.0 | 0.0 | 0.00 | 0.31 | 0.31 | 98 | 1010.5 |
| 20260510035402 | 54 | 216 | 0.0 | 0.0 | 0.00 | 0.31 | 0.31 | 98 | 1010.2 |
| 20260510034857 | 53 | 216 | 0.0 | 0.0 | 0.00 | 0.31 | 0.31 | 98 | 1010.5 |
| 20260510034356 | 53 | 216 | 0.0 | 0.0 | 0.00 | 0.31 | 0.31 | 97 | 1010.5 |
| 20260510033852 | 53 | 216 | 0.0 | 0.0 | 0.00 | 0.31 | 0.31 | 97 | 1010.3 |
| 20260510033348 | 53 | 216 | 0.0 | 0.0 | 0.00 | 0.31 | 0.31 | 97 | 1010.2 |
| 20260510032844 | 53 | 216 | 0.0 | 0.0 | 0.00 | 0.31 | 0.31 | 97 | 1010.2 |
| 20260510032342 | 53 | 216 | 0.0 | 0.0 | 0.00 | 0.31 | 0.31 | 97 | 1010.5 |
| 20260510031837 | 53 | 216 | 0.0 | 0.0 | 0.00 | 0.31 | 0.31 | 97 | 1010.6 |
| 20260510031333 | 53 | 216 | 0.0 | 0.0 | 0.00 | 0.31 | 0.31 | 97 | 1010.5 |
| 20260510030833 | 54 | 241 | 0.0 | 0.0 | 0.00 | 0.31 | 0.31 | 97 | 1010.3 |
| 20260510030329 | 54 | 264 | 0.0 | 0.0 | 0.00 | 0.31 | 0.31 | 96 | 1010.4 |
| 20260510025826 | 54 | 264 | 0.0 | 0.0 | 0.00 | 0.31 | 0.31 | 96 | 1010.5 |
| 20260510025324 | 54 | 344 | 0.0 | 0.0 | 0.00 | 0.31 | 0.31 | 96 | 1010.4 |
| 20260510024821 | 55 | 344 | 0.0 | 0.0 | 0.00 | 0.31 | 0.31 | 96 | 1010.8 |
| 20260510024318 | 55 | 344 | 0.0 | 0.0 | 0.00 | 0.31 | 0.31 | 96 | 1010.4 |
| 20260510023814 | 55 | 344 | 0.0 | 0.0 | 0.00 | 0.31 | 0.31 | 96 | 1010.2 |
| 20260510023310 | 55 | 344 | 0.0 | 0.0 | 0.00 | 0.31 | 0.31 | 96 | 1010.3 |
| 20260510022808 | 55 | 344 | 0.0 | 0.0 | 0.00 | 0.31 | 0.31 | 96 | 1010.2 |
| 20260510022307 | 55 | 335 | 0.0 | 0.0 | 0.00 | 0.31 | 0.31 | 96 | 1010.3 |
| 20260510021806 | 55 | 335 | 0.0 | 0.0 | 0.00 | 0.31 | 0.31 | 96 | 1010.1 |
| 20260510021304 | 55 | 336 | 0.0 | 0.0 | 0.00 | 0.31 | 0.31 | 95 | 1010.2 |
| 20260510020800 | 55 | 336 | 0.0 | 0.0 | 0.00 | 0.31 | 0.31 | 95 | 1010.1 |
| 20260510020259 | 55 | 336 | 0.0 | 0.0 | 0.00 | 0.31 | 0.31 | 95 | 1009.7 |
| 20260510015755 | 55 | 336 | 0.0 | 0.0 | 0.00 | 0.31 | 0.31 | 95 | 1009.8 |
| 20260510015252 | 55 | 295 | 0.0 | 0.0 | 0.05 | 0.31 | 0.31 | 95 | 1009.8 |
| 20260510014748 | 55 | 293 | 0.0 | 1.0 | 0.05 | 0.31 | 0.31 | 95 | 1010.1 |
| 20260510014245 | 55 | 286 | 1.0 | 1.0 | 0.00 | 0.30 | 0.30 | 95 | 1009.6 |
| 20260510013741 | 55 | 176 | 0.0 | 0.0 | 0.00 | 0.30 | 0.30 | 95 | 1009.1 |
| 20260510013237 | 55 | 176 | 0.0 | 0.0 | 0.00 | 0.30 | 0.30 | 95 | 1009.1 |
| 20260510012737 | 55 | 176 | 0.0 | 0.0 | 0.00 | 0.30 | 0.30 | 95 | 1009.4 |
| 20260510012232 | 55 | 176 | 0.0 | 0.0 | 0.00 | 0.30 | 0.30 | 95 | 1009.3 |
| 20260510011732 | 54 | 237 | 0.0 | 0.0 | 0.00 | 0.30 | 0.30 | 95 | 1009.0 |
| 20260510011228 | 0 | 0.0 | 0.0 | 0.00 | 0.30 | 0.30 | 1009.1 | ||
| 20260510010725 | 54 | 311 | 0.0 | 0.0 | 0.00 | 0.30 | 0.30 | 95 | 1009.2 |
| 20260510010221 | 54 | 311 | 0.0 | 0.0 | 0.00 | 0.30 | 0.30 | 95 | 1009.1 |
| 20260510005718 | 54 | 311 | 0.0 | 0.0 | 0.00 | 0.30 | 0.30 | 95 | 1009.2 |
| 20260510005214 | 55 | 311 | 0.0 | 0.0 | 0.00 | 0.30 | 0.30 | 95 | 1009.1 |
| 20260510004712 | 55 | 311 | 0.0 | 0.0 | 0.00 | 0.30 | 0.30 | 94 | 1009.1 |
| 20260510004210 | 55 | 311 | 0.0 | 0.0 | 0.00 | 0.30 | 0.30 | 94 | 1009.0 |
| 20260510003707 | 55 | 311 | 0.0 | 0.0 | 0.00 | 0.30 | 0.30 | 94 | 1008.9 |
| 20260510003203 | 55 | 311 | 0.0 | 0.0 | 0.00 | 0.30 | 0.30 | 94 | 1009.2 |
| 20260510002657 | 55 | 304 | 0.0 | 0.0 | 0.00 | 0.30 | 0.30 | 93 | 1008.9 |
| 20260510002155 | 55 | 300 | 0.0 | 1.0 | 0.00 | 0.30 | 0.30 | 93 | 1008.9 |
| 20260510001652 | 55 | 250 | 1.0 | 1.0 | 0.00 | 0.30 | 0.30 | 93 | 1009.1 |
| 20260510001151 | 56 | 13 | 1.0 | 1.0 | 0.07 | 0.30 | 0.30 | 93 | 1008.9 |
| 20260510000651 | 56 | 259 | 0.0 | 0.0 | 0.07 | 0.30 | 0.30 | 92 | 1009.1 |
| 20260510000149 | 56 | 329 | 0.0 | 0.0 | 0.07 | 0.29 | 0.29 | 91 | 1009.3 |
| 20260509235645 | 56 | 354 | 1.0 | 1.0 | 0.07 | 0.29 | 0.29 | 90 | 1009.5 |
| 20260509235141 | 56 | 297 | 1.0 | 2.0 | 0.05 | 0.28 | 0.28 | 89 | 1009.2 |
| 20260509234637 | 57 | 16 | 1.0 | 2.0 | 0.05 | 0.28 | 0.28 | 89 | 1009.2 |
| 20260509234135 | 58 | 219 | 0.0 | 1.0 | 0.00 | 0.27 | 0.27 | 85 | 1008.9 |
| 20260509233633 | 64 | 261 | 5.0 | 7.0 | 0.00 | 0.27 | 0.27 | 73 | 1008.7 |
| 20260509233130 | 65 | 282 | 2.0 | 3.0 | 0.00 | 0.27 | 0.27 | 68 | 1009.0 |
| 20260509232626 | 65 | 353 | 1.0 | 2.0 | 0.00 | 0.27 | 0.27 | 64 | 1007.7 |
| 20260509232123 | 65 | 146 | 2.0 | 3.0 | 0.00 | 0.27 | 0.27 | 65 | 1007.6 |
| 20260509231619 | 66 | 308 | 1.0 | 2.0 | 0.00 | 0.27 | 0.27 | 64 | 1007.7 |
| 20260509231117 | 66 | 149 | 3.0 | 4.0 | 0.00 | 0.27 | 0.27 | 63 | 1007.3 |
| 20260509230614 | 67 | 238 | 2.0 | 2.0 | 0.00 | 0.27 | 0.27 | 60 | 1007.2 |
| 20260509230111 | 67 | 209 | 4.0 | 6.0 | 0.00 | 0.27 | 0.27 | 60 | 1007.2 |
| 20260509225607 | 67 | 236 | 4.0 | 7.0 | 0.00 | 0.27 | 0.27 | 58 | 1007.3 |
| 20260509225102 | 68 | 263 | 1.0 | 2.0 | 0.00 | 0.27 | 0.27 | 58 | 1007.3 |
| 20260509224558 | 0 | 0.0 | 0.0 | 0.00 | 0.27 | 0.27 | 1007.3 | ||
| 20260509224055 | 67 | 236 | 2.0 | 4.0 | 0.00 | 0.27 | 0.27 | 59 | 1007.3 |
| 20260509223552 | 67 | 236 | 2.0 | 4.0 | 0.00 | 0.27 | 0.27 | 59 | 1007.3 |
| 20260509223050 | 0 | 0.0 | 0.0 | 0.00 | 0.27 | 0.27 | 1007.1 | ||
| 20260509222545 | 0 | 0.0 | 0.0 | 0.00 | 0.27 | 0.27 | 1007.3 | ||
| 20260509222042 | 68 | 231 | 5.0 | 7.0 | 0.00 | 0.27 | 0.27 | 57 | 1007.1 |
| 20260509221537 | 68 | 274 | 4.0 | 4.0 | 0.00 | 0.27 | 0.27 | 57 | 1007.2 |
| 20260509221033 | 69 | 99 | 3.0 | 3.0 | 0.00 | 0.27 | 0.27 | 56 | 1007.1 |
| 20260509220530 | 69 | 245 | 4.0 | 8.0 | 0.00 | 0.27 | 0.27 | 57 | 1007.3 |
| 20260509220026 | 69 | 290 | 4.0 | 6.0 | 0.00 | 0.27 | 0.27 | 56 | 1007.2 |
| 20260509215521 | 69 | 271 | 2.0 | 3.0 | 0.00 | 0.27 | 0.27 | 57 | 1007.5 |
| 20260509215019 | 69 | 284 | 1.0 | 3.0 | 0.00 | 0.27 | 0.27 | 55 | 1007.3 |
| 20260509214516 | 69 | 249 | 5.0 | 6.0 | 0.00 | 0.27 | 0.27 | 55 | 1007.0 |
| 20260509214013 | 69 | 238 | 2.0 | 6.0 | 0.00 | 0.27 | 0.27 | 53 | 1007.1 |
| 20260509213509 | 69 | 281 | 6.0 | 8.0 | 0.00 | 0.27 | 0.27 | 54 | 1007.0 |
| 20260509213006 | 69 | 254 | 6.0 | 8.0 | 0.00 | 0.27 | 0.27 | 56 | 1007.2 |
| 20260509212503 | 69 | 85 | 4.0 | 6.0 | 0.00 | 0.27 | 0.27 | 55 | 1007.2 |
| 20260509212000 | 69 | 95 | 4.0 | 6.0 | 0.00 | 0.27 | 0.27 | 56 | 1007.2 |
| 20260509211455 | 69 | 244 | 1.0 | 6.0 | 0.00 | 0.27 | 0.27 | 57 | 1007.3 |
| 20260509210952 | 69 | 87 | 3.0 | 3.0 | 0.00 | 0.27 | 0.27 | 54 | 1007.5 |
| 20260509210449 | 69 | 132 | 2.0 | 8.0 | 0.00 | 0.27 | 0.27 | 54 | 1007.3 |
| 20260509205944 | 69 | 98 | 3.0 | 7.0 | 0.00 | 0.27 | 0.27 | 53 | 1007.7 |
| 20260509205439 | 69 | 229 | 4.0 | 6.0 | 0.00 | 0.27 | 0.27 | 56 | 1007.7 |
| 20260509204935 | 69 | 288 | 5.0 | 8.0 | 0.00 | 0.27 | 0.27 | 56 | 1007.6 |
| 20260509204432 | 70 | 302 | 2.0 | 2.0 | 0.00 | 0.27 | 0.27 | 56 | 1007.5 |
| 20260509203928 | 70 | 207 | 0.0 | 4.0 | 0.00 | 0.27 | 0.27 | 57 | 1007.7 |
| 20260509203424 | 69 | 224 | 4.0 | 7.0 | 0.00 | 0.27 | 0.27 | 57 | 1007.8 |
| 20260509202922 | 69 | 145 | 1.0 | 9.0 | 0.00 | 0.27 | 0.27 | 57 | 1007.8 |
| 20260509202418 | 69 | 227 | 0.0 | 2.0 | 0.00 | 0.27 | 0.27 | 59 | 1007.8 |
| 20260509201913 | 69 | 138 | 3.0 | 7.0 | 0.00 | 0.27 | 0.27 | 58 | 1007.9 |
| 20260509201408 | 69 | 245 | 2.0 | 7.0 | 0.00 | 0.27 | 0.27 | 59 | 1007.9 |
| 20260509200906 | 69 | 108 | 2.0 | 6.0 | 0.00 | 0.27 | 0.27 | 57 | 1008.2 |
| 20260509200405 | 68 | 101 | 3.0 | 3.0 | 0.00 | 0.27 | 0.27 | 59 | 1008.0 |
| 20260509195902 | 68 | 262 | 4.0 | 6.0 | 0.00 | 0.27 | 0.27 | 59 | 1008.2 |
| 20260509195402 | 68 | 226 | 4.0 | 6.0 | 0.00 | 0.27 | 0.27 | 58 | 1008.2 |
| 20260509194857 | 69 | 71 | 4.0 | 6.0 | 0.00 | 0.27 | 0.27 | 59 | 1008.5 |
| 20260509194353 | 68 | 205 | 2.0 | 3.0 | 0.00 | 0.27 | 0.27 | 60 | 1008.4 |
| 20260509193850 | 67 | 151 | 2.0 | 3.0 | 0.00 | 0.27 | 0.27 | 59 | 1008.5 |
| 20260509193349 | 67 | 151 | 2.0 | 4.0 | 0.00 | 0.27 | 0.27 | 59 | 1008.7 |
| 20260509192846 | 68 | 76 | 4.0 | 7.0 | 0.00 | 0.27 | 0.27 | 58 | 1008.6 |